Index of /20260430/WXO-DD/model_gdps/15km/00/093
Name Last modified Size Description
Parent Directory -
20260430T00Z_MSC_GDPS_AbsoluteVorticity_IsbL-0200_LatLon0.15_PT093H.grib2 2026-04-30 04:29 1.5M
20260430T00Z_MSC_GDPS_AbsoluteVorticity_IsbL-0250_LatLon0.15_PT093H.grib2 2026-04-30 04:29 1.6M
20260430T00Z_MSC_GDPS_AbsoluteVorticity_IsbL-0500_LatLon0.15_PT093H.grib2 2026-04-30 04:29 1.4M
20260430T00Z_MSC_GDPS_AbsoluteVorticity_IsbL-0700_LatLon0.15_PT093H.grib2 2026-04-30 04:29 1.6M
20260430T00Z_MSC_GDPS_AbsoluteVorticity_IsbL-0850_LatLon0.15_PT093H.grib2 2026-04-30 04:29 1.6M
20260430T00Z_MSC_GDPS_AirTemp_AGL-120m_LatLon0.15_PT093H.grib2 2026-04-30 04:29 911K
20260430T00Z_MSC_GDPS_AirTemp_AGL-2m_LatLon0.15_PT093H.grib2 2026-04-30 04:29 1.0M
20260430T00Z_MSC_GDPS_AirTemp_AGL-40m_LatLon0.15_PT093H.grib2 2026-04-30 04:29 819K
20260430T00Z_MSC_GDPS_AirTemp_AGL-80m_LatLon0.15_PT093H.grib2 2026-04-30 04:29 923K
20260430T00Z_MSC_GDPS_AirTemp_IsbL-0001_LatLon0.15_PT093H.grib2 2026-04-30 04:29 715K
20260430T00Z_MSC_GDPS_AirTemp_IsbL-0005_LatLon0.15_PT093H.grib2 2026-04-30 04:29 681K
20260430T00Z_MSC_GDPS_AirTemp_IsbL-0010_LatLon0.15_PT093H.grib2 2026-04-30 04:29 695K
20260430T00Z_MSC_GDPS_AirTemp_IsbL-0020_LatLon0.15_PT093H.grib2 2026-04-30 04:29 792K
20260430T00Z_MSC_GDPS_AirTemp_IsbL-0030_LatLon0.15_PT093H.grib2 2026-04-30 04:29 841K
20260430T00Z_MSC_GDPS_AirTemp_IsbL-0050_LatLon0.15_PT093H.grib2 2026-04-30 04:29 815K
20260430T00Z_MSC_GDPS_AirTemp_IsbL-0100_LatLon0.15_PT093H.grib2 2026-04-30 04:29 972K
20260430T00Z_MSC_GDPS_AirTemp_IsbL-0150_LatLon0.15_PT093H.grib2 2026-04-30 04:29 1.0M
20260430T00Z_MSC_GDPS_AirTemp_IsbL-0175_LatLon0.15_PT093H.grib2 2026-04-30 04:29 963K
20260430T00Z_MSC_GDPS_AirTemp_IsbL-0200_LatLon0.15_PT093H.grib2 2026-04-30 04:29 1.0M
20260430T00Z_MSC_GDPS_AirTemp_IsbL-0225_LatLon0.15_PT093H.grib2 2026-04-30 04:29 1.0M
20260430T00Z_MSC_GDPS_AirTemp_IsbL-0250_LatLon0.15_PT093H.grib2 2026-04-30 04:29 1.0M
20260430T00Z_MSC_GDPS_AirTemp_IsbL-0275_LatLon0.15_PT093H.grib2 2026-04-30 04:29 1.0M
20260430T00Z_MSC_GDPS_AirTemp_IsbL-0300_LatLon0.15_PT093H.grib2 2026-04-30 04:29 947K
20260430T00Z_MSC_GDPS_AirTemp_IsbL-0350_LatLon0.15_PT093H.grib2 2026-04-30 04:29 930K
20260430T00Z_MSC_GDPS_AirTemp_IsbL-0400_LatLon0.15_PT093H.grib2 2026-04-30 04:29 943K
20260430T00Z_MSC_GDPS_AirTemp_IsbL-0450_LatLon0.15_PT093H.grib2 2026-04-30 04:29 967K
20260430T00Z_MSC_GDPS_AirTemp_IsbL-0500_LatLon0.15_PT093H.grib2 2026-04-30 04:29 1.0M
20260430T00Z_MSC_GDPS_AirTemp_IsbL-0550_LatLon0.15_PT093H.grib2 2026-04-30 04:29 805K
20260430T00Z_MSC_GDPS_AirTemp_IsbL-0600_LatLon0.15_PT093H.grib2 2026-04-30 04:29 895K
20260430T00Z_MSC_GDPS_AirTemp_IsbL-0650_LatLon0.15_PT093H.grib2 2026-04-30 04:29 920K
20260430T00Z_MSC_GDPS_AirTemp_IsbL-0700_LatLon0.15_PT093H.grib2 2026-04-30 04:29 955K
20260430T00Z_MSC_GDPS_AirTemp_IsbL-0750_LatLon0.15_PT093H.grib2 2026-04-30 04:29 1.0M
20260430T00Z_MSC_GDPS_AirTemp_IsbL-0800_LatLon0.15_PT093H.grib2 2026-04-30 04:29 1.0M
20260430T00Z_MSC_GDPS_AirTemp_IsbL-0850_LatLon0.15_PT093H.grib2 2026-04-30 04:29 1.1M
20260430T00Z_MSC_GDPS_AirTemp_IsbL-0875_LatLon0.15_PT093H.grib2 2026-04-30 04:29 1.1M
20260430T00Z_MSC_GDPS_AirTemp_IsbL-0900_LatLon0.15_PT093H.grib2 2026-04-30 04:29 1.1M
20260430T00Z_MSC_GDPS_AirTemp_IsbL-0925_LatLon0.15_PT093H.grib2 2026-04-30 04:29 1.1M
20260430T00Z_MSC_GDPS_AirTemp_IsbL-0950_LatLon0.15_PT093H.grib2 2026-04-30 04:29 1.1M
20260430T00Z_MSC_GDPS_AirTemp_IsbL-0970_LatLon0.15_PT093H.grib2 2026-04-30 04:29 1.1M
20260430T00Z_MSC_GDPS_AirTemp_IsbL-0985_LatLon0.15_PT093H.grib2 2026-04-30 04:29 1.1M
20260430T00Z_MSC_GDPS_AirTemp_IsbL-1000_LatLon0.15_PT093H.grib2 2026-04-30 04:29 1.1M
20260430T00Z_MSC_GDPS_AirTemp_IsbL-1015_LatLon0.15_PT093H.grib2 2026-04-30 04:29 1.1M
20260430T00Z_MSC_GDPS_Albedo_Sfc_LatLon0.15_PT093H.grib2 2026-04-30 04:29 242K
20260430T00Z_MSC_GDPS_CAPE_Sfc_LatLon0.15_PT093H.grib2 2026-04-30 04:29 3.9M
20260430T00Z_MSC_GDPS_CIN_Sfc_LatLon0.15_PT093H.grib2 2026-04-30 04:29 2.8M
20260430T00Z_MSC_GDPS_CloudWater_EAtm_LatLon0.15_PT093H.grib2 2026-04-30 04:29 533K
20260430T00Z_MSC_GDPS_ConvectivePrecip-Accum_Sfc_LatLon0.15_PT093H.grib2 2026-04-30 04:29 3.3M
20260430T00Z_MSC_GDPS_DewPointDepression_AGL-2m_LatLon0.15_PT093H.grib2 2026-04-30 04:29 765K
20260430T00Z_MSC_GDPS_DewPointDepression_IsbL-0010_LatLon0.15_PT093H.grib2 2026-04-30 04:29 66K
20260430T00Z_MSC_GDPS_DewPointDepression_IsbL-0020_LatLon0.15_PT093H.grib2 2026-04-30 04:29 69K
20260430T00Z_MSC_GDPS_DewPointDepression_IsbL-0030_LatLon0.15_PT093H.grib2 2026-04-30 04:29 85K
20260430T00Z_MSC_GDPS_DewPointDepression_IsbL-0050_LatLon0.15_PT093H.grib2 2026-04-30 04:29 380K
20260430T00Z_MSC_GDPS_DewPointDepression_IsbL-0100_LatLon0.15_PT093H.grib2 2026-04-30 04:29 406K
20260430T00Z_MSC_GDPS_DewPointDepression_IsbL-0150_LatLon0.15_PT093H.grib2 2026-04-30 04:29 469K
20260430T00Z_MSC_GDPS_DewPointDepression_IsbL-0175_LatLon0.15_PT093H.grib2 2026-04-30 04:29 583K
20260430T00Z_MSC_GDPS_DewPointDepression_IsbL-0200_LatLon0.15_PT093H.grib2 2026-04-30 04:29 685K
20260430T00Z_MSC_GDPS_DewPointDepression_IsbL-0225_LatLon0.15_PT093H.grib2 2026-04-30 04:29 778K
20260430T00Z_MSC_GDPS_DewPointDepression_IsbL-0250_LatLon0.15_PT093H.grib2 2026-04-30 04:29 862K
20260430T00Z_MSC_GDPS_DewPointDepression_IsbL-0275_LatLon0.15_PT093H.grib2 2026-04-30 04:29 875K
20260430T00Z_MSC_GDPS_DewPointDepression_IsbL-0300_LatLon0.15_PT093H.grib2 2026-04-30 04:29 913K
20260430T00Z_MSC_GDPS_DewPointDepression_IsbL-0350_LatLon0.15_PT093H.grib2 2026-04-30 04:29 950K
20260430T00Z_MSC_GDPS_DewPointDepression_IsbL-0400_LatLon0.15_PT093H.grib2 2026-04-30 04:29 1.0M
20260430T00Z_MSC_GDPS_DewPointDepression_IsbL-0450_LatLon0.15_PT093H.grib2 2026-04-30 04:29 1.0M
20260430T00Z_MSC_GDPS_DewPointDepression_IsbL-0500_LatLon0.15_PT093H.grib2 2026-04-30 04:29 1.0M
20260430T00Z_MSC_GDPS_DewPointDepression_IsbL-0550_LatLon0.15_PT093H.grib2 2026-04-30 04:29 1.0M
20260430T00Z_MSC_GDPS_DewPointDepression_IsbL-0600_LatLon0.15_PT093H.grib2 2026-04-30 04:29 1.1M
20260430T00Z_MSC_GDPS_DewPointDepression_IsbL-0650_LatLon0.15_PT093H.grib2 2026-04-30 04:29 1.1M
20260430T00Z_MSC_GDPS_DewPointDepression_IsbL-0700_LatLon0.15_PT093H.grib2 2026-04-30 04:29 1.1M
20260430T00Z_MSC_GDPS_DewPointDepression_IsbL-0750_LatLon0.15_PT093H.grib2 2026-04-30 04:29 1.1M
20260430T00Z_MSC_GDPS_DewPointDepression_IsbL-0800_LatLon0.15_PT093H.grib2 2026-04-30 04:29 1.2M
20260430T00Z_MSC_GDPS_DewPointDepression_IsbL-0850_LatLon0.15_PT093H.grib2 2026-04-30 04:29 1.2M
20260430T00Z_MSC_GDPS_DewPointDepression_IsbL-0875_LatLon0.15_PT093H.grib2 2026-04-30 04:29 1.1M
20260430T00Z_MSC_GDPS_DewPointDepression_IsbL-0900_LatLon0.15_PT093H.grib2 2026-04-30 04:29 1.1M
20260430T00Z_MSC_GDPS_DewPointDepression_IsbL-0925_LatLon0.15_PT093H.grib2 2026-04-30 04:29 1.0M
20260430T00Z_MSC_GDPS_DewPointDepression_IsbL-0950_LatLon0.15_PT093H.grib2 2026-04-30 04:29 1.0M
20260430T00Z_MSC_GDPS_DewPointDepression_IsbL-0970_LatLon0.15_PT093H.grib2 2026-04-30 04:29 1.0M
20260430T00Z_MSC_GDPS_DewPointDepression_IsbL-0985_LatLon0.15_PT093H.grib2 2026-04-30 04:29 1.0M
20260430T00Z_MSC_GDPS_DewPointDepression_IsbL-1000_LatLon0.15_PT093H.grib2 2026-04-30 04:29 1.0M
20260430T00Z_MSC_GDPS_DewPointDepression_IsbL-1015_LatLon0.15_PT093H.grib2 2026-04-30 04:29 918K
20260430T00Z_MSC_GDPS_DewPoint_AGL-2m_LatLon0.15_PT093H.grib2 2026-04-30 04:29 606K
20260430T00Z_MSC_GDPS_DownwardLongwaveRadiationFlux-Accum_Sfc_LatLon0.15_PT093H.grib2 2026-04-30 04:29 716K
20260430T00Z_MSC_GDPS_DownwardShortwaveRadiationFlux-Accum_NTAtm_LatLon0.15_PT093H.grib2 2026-04-30 04:29 243K
20260430T00Z_MSC_GDPS_DownwardShortwaveRadiationFlux-Accum_Sfc_LatLon0.15_PT093H.grib2 2026-04-30 04:29 931K
20260430T00Z_MSC_GDPS_FreezingRain-Accum1h_Sfc_LatLon0.15_PT093H.grib2 2026-04-30 04:29 41K
20260430T00Z_MSC_GDPS_FreezingRain-Accum3h_Sfc_LatLon0.15_PT093H.grib2 2026-04-30 04:29 48K
20260430T00Z_MSC_GDPS_FreezingRain-Accum_Sfc_LatLon0.15_PT093H.grib2 2026-04-30 04:29 356K
20260430T00Z_MSC_GDPS_GeopotentialHeight_IsbL-0001_LatLon0.15_PT093H.grib2 2026-04-30 04:29 414K
20260430T00Z_MSC_GDPS_GeopotentialHeight_IsbL-0005_LatLon0.15_PT093H.grib2 2026-04-30 04:29 494K
20260430T00Z_MSC_GDPS_GeopotentialHeight_IsbL-0010_LatLon0.15_PT093H.grib2 2026-04-30 04:29 485K
20260430T00Z_MSC_GDPS_GeopotentialHeight_IsbL-0020_LatLon0.15_PT093H.grib2 2026-04-30 04:29 413K
20260430T00Z_MSC_GDPS_GeopotentialHeight_IsbL-0030_LatLon0.15_PT093H.grib2 2026-04-30 04:29 571K
20260430T00Z_MSC_GDPS_GeopotentialHeight_IsbL-0050_LatLon0.15_PT093H.grib2 2026-04-30 04:29 570K
20260430T00Z_MSC_GDPS_GeopotentialHeight_IsbL-0100_LatLon0.15_PT093H.grib2 2026-04-30 04:29 609K
20260430T00Z_MSC_GDPS_GeopotentialHeight_IsbL-0150_LatLon0.15_PT093H.grib2 2026-04-30 04:29 627K
20260430T00Z_MSC_GDPS_GeopotentialHeight_IsbL-0175_LatLon0.15_PT093H.grib2 2026-04-30 04:29 630K
20260430T00Z_MSC_GDPS_GeopotentialHeight_IsbL-0200_LatLon0.15_PT093H.grib2 2026-04-30 04:29 634K
20260430T00Z_MSC_GDPS_GeopotentialHeight_IsbL-0225_LatLon0.15_PT093H.grib2 2026-04-30 04:29 638K
20260430T00Z_MSC_GDPS_GeopotentialHeight_IsbL-0250_LatLon0.15_PT093H.grib2 2026-04-30 04:29 642K
20260430T00Z_MSC_GDPS_GeopotentialHeight_IsbL-0275_LatLon0.15_PT093H.grib2 2026-04-30 04:29 641K
20260430T00Z_MSC_GDPS_GeopotentialHeight_IsbL-0300_LatLon0.15_PT093H.grib2 2026-04-30 04:29 639K
20260430T00Z_MSC_GDPS_GeopotentialHeight_IsbL-0350_LatLon0.15_PT093H.grib2 2026-04-30 04:29 630K
20260430T00Z_MSC_GDPS_GeopotentialHeight_IsbL-0400_LatLon0.15_PT093H.grib2 2026-04-30 04:29 619K
20260430T00Z_MSC_GDPS_GeopotentialHeight_IsbL-0450_LatLon0.15_PT093H.grib2 2026-04-30 04:29 611K
20260430T00Z_MSC_GDPS_GeopotentialHeight_IsbL-0500_LatLon0.15_PT093H.grib2 2026-04-30 04:29 603K
20260430T00Z_MSC_GDPS_GeopotentialHeight_IsbL-0550_LatLon0.15_PT093H.grib2 2026-04-30 04:29 528K
20260430T00Z_MSC_GDPS_GeopotentialHeight_IsbL-0600_LatLon0.15_PT093H.grib2 2026-04-30 04:29 523K
20260430T00Z_MSC_GDPS_GeopotentialHeight_IsbL-0650_LatLon0.15_PT093H.grib2 2026-04-30 04:29 688K
20260430T00Z_MSC_GDPS_GeopotentialHeight_IsbL-0700_LatLon0.15_PT093H.grib2 2026-04-30 04:29 689K
20260430T00Z_MSC_GDPS_GeopotentialHeight_IsbL-0750_LatLon0.15_PT093H.grib2 2026-04-30 04:29 689K
20260430T00Z_MSC_GDPS_GeopotentialHeight_IsbL-0800_LatLon0.15_PT093H.grib2 2026-04-30 04:29 704K
20260430T00Z_MSC_GDPS_GeopotentialHeight_IsbL-0850_LatLon0.15_PT093H.grib2 2026-04-30 04:29 709K
20260430T00Z_MSC_GDPS_GeopotentialHeight_IsbL-0875_LatLon0.15_PT093H.grib2 2026-04-30 04:29 718K
20260430T00Z_MSC_GDPS_GeopotentialHeight_IsbL-0900_LatLon0.15_PT093H.grib2 2026-04-30 04:29 724K
20260430T00Z_MSC_GDPS_GeopotentialHeight_IsbL-0925_LatLon0.15_PT093H.grib2 2026-04-30 04:29 731K
20260430T00Z_MSC_GDPS_GeopotentialHeight_IsbL-0950_LatLon0.15_PT093H.grib2 2026-04-30 04:29 738K
20260430T00Z_MSC_GDPS_GeopotentialHeight_IsbL-0970_LatLon0.15_PT093H.grib2 2026-04-30 04:29 751K
20260430T00Z_MSC_GDPS_GeopotentialHeight_IsbL-0985_LatLon0.15_PT093H.grib2 2026-04-30 04:29 766K
20260430T00Z_MSC_GDPS_GeopotentialHeight_IsbL-1000_LatLon0.15_PT093H.grib2 2026-04-30 04:29 787K
20260430T00Z_MSC_GDPS_GeopotentialHeight_IsbL-1015_LatLon0.15_PT093H.grib2 2026-04-30 04:29 810K
20260430T00Z_MSC_GDPS_Humidex_Sfc_LatLon0.15_PT093H.grib2 2026-04-30 04:29 5.3M
20260430T00Z_MSC_GDPS_IcePellets-Accum1h_Sfc_LatLon0.15_PT093H.grib2 2026-04-30 04:29 1.7K
20260430T00Z_MSC_GDPS_IcePellets-Accum3h_Sfc_LatLon0.15_PT093H.grib2 2026-04-30 04:29 2.0K
20260430T00Z_MSC_GDPS_IcePellets-Accum_Sfc_LatLon0.15_PT093H.grib2 2026-04-30 04:29 77K
20260430T00Z_MSC_GDPS_KIndex_Sfc_LatLon0.15_PT093H.grib2 2026-04-30 04:29 6.5M
20260430T00Z_MSC_GDPS_LatentHeatNetFlux_Sfc_LatLon0.15_PT093H.grib2 2026-04-30 04:29 672K
20260430T00Z_MSC_GDPS_LiftedIndex-MU-VT_IsbL-0500_LatLon0.15_PT093H.grib2 2026-04-30 04:29 5.4M
20260430T00Z_MSC_GDPS_NetLongwaveRadiationFlux-Accum_Sfc_LatLon0.15_PT093H.grib2 2026-04-30 04:29 954K
20260430T00Z_MSC_GDPS_NetShortwaveRadiationFlux-Accum_Sfc_LatLon0.15_PT093H.grib2 2026-04-30 04:29 917K
20260430T00Z_MSC_GDPS_O3MixingRatio_Sfc_LatLon0.15_PT093H.grib2 2026-04-30 04:51 1.9M
20260430T00Z_MSC_GDPS_O3_EAtm_LatLon0.15_PT093H.grib2 2026-04-30 04:51 2.4M
20260430T00Z_MSC_GDPS_PlanetaryBoundaryLayerHeight_Sfc_LatLon0.15_PT093H.grib2 2026-04-30 04:29 2.4M
20260430T00Z_MSC_GDPS_Precip-Accum1h_Sfc_LatLon0.15_PT093H.grib2 2026-04-30 04:29 3.2M
20260430T00Z_MSC_GDPS_Precip-Accum3h_Sfc_LatLon0.15_PT093H.grib2 2026-04-30 04:29 3.5M
20260430T00Z_MSC_GDPS_Precip-Accum_Sfc_LatLon0.15_PT093H.grib2 2026-04-30 04:29 5.3M
20260430T00Z_MSC_GDPS_PrecipRate_Sfc_LatLon0.15_PT093H.grib2 2026-04-30 04:29 3.0M
20260430T00Z_MSC_GDPS_PrecipType-Instant_Sfc_LatLon0.15_PT093H.grib2 2026-04-30 04:29 1.6M
20260430T00Z_MSC_GDPS_Pressure_MSL_LatLon0.15_PT093H.grib2 2026-04-30 04:29 823K
20260430T00Z_MSC_GDPS_Pressure_PVU-1.5_LatLon0.15_PT093H.grib2 2026-04-30 04:29 5.8M
20260430T00Z_MSC_GDPS_Pressure_PVU-1_LatLon0.15_PT093H.grib2 2026-04-30 04:29 6.0M
20260430T00Z_MSC_GDPS_Pressure_PVU-2_LatLon0.15_PT093H.grib2 2026-04-30 04:29 5.6M
20260430T00Z_MSC_GDPS_Pressure_Sfc_LatLon0.15_PT093H.grib2 2026-04-30 04:29 1.1M
20260430T00Z_MSC_GDPS_RadiativeTemp_Sfc_LatLon0.15_PT093H.grib2 2026-04-30 04:29 658K
20260430T00Z_MSC_GDPS_Rain-Accum1h_Sfc_LatLon0.15_PT093H.grib2 2026-04-30 04:29 1.6M
20260430T00Z_MSC_GDPS_Rain-Accum3h_Sfc_LatLon0.15_PT093H.grib2 2026-04-30 04:29 1.8M
20260430T00Z_MSC_GDPS_Rain-Accum_Sfc_LatLon0.15_PT093H.grib2 2026-04-30 04:29 4.1M
20260430T00Z_MSC_GDPS_RelativeHumidity_AGL-2m_LatLon0.15_PT093H.grib2 2026-04-30 04:29 1.1M
20260430T00Z_MSC_GDPS_RelativeHumidity_IsbL-0010_LatLon0.15_PT093H.grib2 2026-04-30 04:29 126K
20260430T00Z_MSC_GDPS_RelativeHumidity_IsbL-0020_LatLon0.15_PT093H.grib2 2026-04-30 04:29 167K
20260430T00Z_MSC_GDPS_RelativeHumidity_IsbL-0030_LatLon0.15_PT093H.grib2 2026-04-30 04:29 270K
20260430T00Z_MSC_GDPS_RelativeHumidity_IsbL-0050_LatLon0.15_PT093H.grib2 2026-04-30 04:29 427K
20260430T00Z_MSC_GDPS_RelativeHumidity_IsbL-0100_LatLon0.15_PT093H.grib2 2026-04-30 04:29 510K
20260430T00Z_MSC_GDPS_RelativeHumidity_IsbL-0150_LatLon0.15_PT093H.grib2 2026-04-30 04:29 660K
20260430T00Z_MSC_GDPS_RelativeHumidity_IsbL-0175_LatLon0.15_PT093H.grib2 2026-04-30 04:29 788K
20260430T00Z_MSC_GDPS_RelativeHumidity_IsbL-0200_LatLon0.15_PT093H.grib2 2026-04-30 04:29 708K
20260430T00Z_MSC_GDPS_RelativeHumidity_IsbL-0225_LatLon0.15_PT093H.grib2 2026-04-30 04:29 795K
20260430T00Z_MSC_GDPS_RelativeHumidity_IsbL-0250_LatLon0.15_PT093H.grib2 2026-04-30 04:29 865K
20260430T00Z_MSC_GDPS_RelativeHumidity_IsbL-0275_LatLon0.15_PT093H.grib2 2026-04-30 04:29 883K
20260430T00Z_MSC_GDPS_RelativeHumidity_IsbL-0300_LatLon0.15_PT093H.grib2 2026-04-30 04:29 922K
20260430T00Z_MSC_GDPS_RelativeHumidity_IsbL-0350_LatLon0.15_PT093H.grib2 2026-04-30 04:29 947K
20260430T00Z_MSC_GDPS_RelativeHumidity_IsbL-0400_LatLon0.15_PT093H.grib2 2026-04-30 04:29 971K
20260430T00Z_MSC_GDPS_RelativeHumidity_IsbL-0450_LatLon0.15_PT093H.grib2 2026-04-30 04:29 1.0M
20260430T00Z_MSC_GDPS_RelativeHumidity_IsbL-0500_LatLon0.15_PT093H.grib2 2026-04-30 04:29 1.0M
20260430T00Z_MSC_GDPS_RelativeHumidity_IsbL-0550_LatLon0.15_PT093H.grib2 2026-04-30 04:29 1.0M
20260430T00Z_MSC_GDPS_RelativeHumidity_IsbL-0600_LatLon0.15_PT093H.grib2 2026-04-30 04:29 1.0M
20260430T00Z_MSC_GDPS_RelativeHumidity_IsbL-0650_LatLon0.15_PT093H.grib2 2026-04-30 04:29 1.1M
20260430T00Z_MSC_GDPS_RelativeHumidity_IsbL-0700_LatLon0.15_PT093H.grib2 2026-04-30 04:29 1.1M
20260430T00Z_MSC_GDPS_RelativeHumidity_IsbL-0750_LatLon0.15_PT093H.grib2 2026-04-30 04:29 1.2M
20260430T00Z_MSC_GDPS_RelativeHumidity_IsbL-0800_LatLon0.15_PT093H.grib2 2026-04-30 04:29 1.2M
20260430T00Z_MSC_GDPS_RelativeHumidity_IsbL-0850_LatLon0.15_PT093H.grib2 2026-04-30 04:29 1.3M
20260430T00Z_MSC_GDPS_RelativeHumidity_IsbL-0875_LatLon0.15_PT093H.grib2 2026-04-30 04:29 1.3M
20260430T00Z_MSC_GDPS_RelativeHumidity_IsbL-0900_LatLon0.15_PT093H.grib2 2026-04-30 04:29 1.2M
20260430T00Z_MSC_GDPS_RelativeHumidity_IsbL-0925_LatLon0.15_PT093H.grib2 2026-04-30 04:29 1.2M
20260430T00Z_MSC_GDPS_RelativeHumidity_IsbL-0950_LatLon0.15_PT093H.grib2 2026-04-30 04:29 1.2M
20260430T00Z_MSC_GDPS_RelativeHumidity_IsbL-0970_LatLon0.15_PT093H.grib2 2026-04-30 04:29 1.2M
20260430T00Z_MSC_GDPS_RelativeHumidity_IsbL-0985_LatLon0.15_PT093H.grib2 2026-04-30 04:29 1.2M
20260430T00Z_MSC_GDPS_RelativeHumidity_IsbL-1000_LatLon0.15_PT093H.grib2 2026-04-30 04:29 1.1M
20260430T00Z_MSC_GDPS_RelativeHumidity_IsbL-1015_LatLon0.15_PT093H.grib2 2026-04-30 04:29 1.0M
20260430T00Z_MSC_GDPS_RelativeVorticity_IsbL-0200_LatLon0.15_PT093H.grib2 2026-04-30 04:29 1.5M
20260430T00Z_MSC_GDPS_RelativeVorticity_IsbL-0250_LatLon0.15_PT093H.grib2 2026-04-30 04:29 1.6M
20260430T00Z_MSC_GDPS_RelativeVorticity_IsbL-0500_LatLon0.15_PT093H.grib2 2026-04-30 04:29 1.4M
20260430T00Z_MSC_GDPS_RelativeVorticity_IsbL-0700_LatLon0.15_PT093H.grib2 2026-04-30 04:29 1.3M
20260430T00Z_MSC_GDPS_RelativeVorticity_IsbL-0850_LatLon0.15_PT093H.grib2 2026-04-30 04:29 1.6M
20260430T00Z_MSC_GDPS_Runoff-Accum_Sfc_LatLon0.15_PT093H.grib2 2026-04-30 04:29 127K
20260430T00Z_MSC_GDPS_SensibleHeatNetFlux_Sfc_LatLon0.15_PT093H.grib2 2026-04-30 04:29 615K
20260430T00Z_MSC_GDPS_ShowalterIndex_IsbL-0500_LatLon0.15_PT093H.grib2 2026-04-30 04:29 6.2M
20260430T00Z_MSC_GDPS_Snow-Accum1h_Sfc_LatLon0.15_PT093H.grib2 2026-04-30 04:29 1.1M
20260430T00Z_MSC_GDPS_Snow-Accum3h_Sfc_LatLon0.15_PT093H.grib2 2026-04-30 04:29 1.1M
20260430T00Z_MSC_GDPS_Snow-Accum_Sfc_LatLon0.15_PT093H.grib2 2026-04-30 04:29 2.1M
20260430T00Z_MSC_GDPS_SnowDensity_Sfc_LatLon0.15_PT093H.grib2 2026-04-30 04:29 266K
20260430T00Z_MSC_GDPS_SnowDepth_Sfc_LatLon0.15_PT093H.grib2 2026-04-30 04:29 1.7M
20260430T00Z_MSC_GDPS_SoilTemp_DBS-0to10cm_LatLon0.15_PT093H.grib2 2026-04-30 04:29 509K
20260430T00Z_MSC_GDPS_SoilTemp_Sfc_LatLon0.15_PT093H.grib2 2026-04-30 04:29 570K
20260430T00Z_MSC_GDPS_SoilVolumetricIceContent_Sfc_LatLon0.15_PT093H.grib2 2026-04-30 04:29 198K
20260430T00Z_MSC_GDPS_SoilVolumetricWaterContent_DBS-0to10cm_LatLon0.15_PT093H.grib2 2026-04-30 04:29 588K
20260430T00Z_MSC_GDPS_SoilVolumetricWaterContent_DBS-0to1cm_LatLon0.15_PT093H.grib2 2026-04-30 04:29 653K
20260430T00Z_MSC_GDPS_SpecificHumidity_AGL-120m_LatLon0.15_PT093H.grib2 2026-04-30 04:29 1.1M
20260430T00Z_MSC_GDPS_SpecificHumidity_AGL-2m_LatLon0.15_PT093H.grib2 2026-04-30 04:29 1.2M
20260430T00Z_MSC_GDPS_SpecificHumidity_AGL-40m_LatLon0.15_PT093H.grib2 2026-04-30 04:29 1.1M
20260430T00Z_MSC_GDPS_SpecificHumidity_AGL-80m_LatLon0.15_PT093H.grib2 2026-04-30 04:29 1.1M
20260430T00Z_MSC_GDPS_SpecificHumidity_IsbL-0001_LatLon0.15_PT093H.grib2 2026-04-30 04:29 1.3M
20260430T00Z_MSC_GDPS_SpecificHumidity_IsbL-0005_LatLon0.15_PT093H.grib2 2026-04-30 04:29 1.2M
20260430T00Z_MSC_GDPS_SpecificHumidity_IsbL-0010_LatLon0.15_PT093H.grib2 2026-04-30 04:29 1.3M
20260430T00Z_MSC_GDPS_SpecificHumidity_IsbL-0020_LatLon0.15_PT093H.grib2 2026-04-30 04:29 1.3M
20260430T00Z_MSC_GDPS_SpecificHumidity_IsbL-0030_LatLon0.15_PT093H.grib2 2026-04-30 04:29 1.3M
20260430T00Z_MSC_GDPS_SpecificHumidity_IsbL-0050_LatLon0.15_PT093H.grib2 2026-04-30 04:29 1.3M
20260430T00Z_MSC_GDPS_SpecificHumidity_IsbL-0100_LatLon0.15_PT093H.grib2 2026-04-30 04:29 1.3M
20260430T00Z_MSC_GDPS_SpecificHumidity_IsbL-0150_LatLon0.15_PT093H.grib2 2026-04-30 04:29 1.3M
20260430T00Z_MSC_GDPS_SpecificHumidity_IsbL-0175_LatLon0.15_PT093H.grib2 2026-04-30 04:29 1.3M
20260430T00Z_MSC_GDPS_SpecificHumidity_IsbL-0200_LatLon0.15_PT093H.grib2 2026-04-30 04:29 1.3M
20260430T00Z_MSC_GDPS_SpecificHumidity_IsbL-0225_LatLon0.15_PT093H.grib2 2026-04-30 04:29 1.3M
20260430T00Z_MSC_GDPS_SpecificHumidity_IsbL-0250_LatLon0.15_PT093H.grib2 2026-04-30 04:29 1.4M
20260430T00Z_MSC_GDPS_SpecificHumidity_IsbL-0275_LatLon0.15_PT093H.grib2 2026-04-30 04:29 1.3M
20260430T00Z_MSC_GDPS_SpecificHumidity_IsbL-0300_LatLon0.15_PT093H.grib2 2026-04-30 04:29 1.2M
20260430T00Z_MSC_GDPS_SpecificHumidity_IsbL-0350_LatLon0.15_PT093H.grib2 2026-04-30 04:29 1.2M
20260430T00Z_MSC_GDPS_SpecificHumidity_IsbL-0400_LatLon0.15_PT093H.grib2 2026-04-30 04:29 1.5M
20260430T00Z_MSC_GDPS_SpecificHumidity_IsbL-0450_LatLon0.15_PT093H.grib2 2026-04-30 04:29 1.6M
20260430T00Z_MSC_GDPS_SpecificHumidity_IsbL-0500_LatLon0.15_PT093H.grib2 2026-04-30 04:29 1.4M
20260430T00Z_MSC_GDPS_SpecificHumidity_IsbL-0550_LatLon0.15_PT093H.grib2 2026-04-30 04:29 1.6M
20260430T00Z_MSC_GDPS_SpecificHumidity_IsbL-0600_LatLon0.15_PT093H.grib2 2026-04-30 04:29 1.7M
20260430T00Z_MSC_GDPS_SpecificHumidity_IsbL-0650_LatLon0.15_PT093H.grib2 2026-04-30 04:29 1.5M
20260430T00Z_MSC_GDPS_SpecificHumidity_IsbL-0700_LatLon0.15_PT093H.grib2 2026-04-30 04:29 1.6M
20260430T00Z_MSC_GDPS_SpecificHumidity_IsbL-0750_LatLon0.15_PT093H.grib2 2026-04-30 04:29 1.7M
20260430T00Z_MSC_GDPS_SpecificHumidity_IsbL-0800_LatLon0.15_PT093H.grib2 2026-04-30 04:29 1.8M
20260430T00Z_MSC_GDPS_SpecificHumidity_IsbL-0850_LatLon0.15_PT093H.grib2 2026-04-30 04:29 1.9M
20260430T00Z_MSC_GDPS_SpecificHumidity_IsbL-0875_LatLon0.15_PT093H.grib2 2026-04-30 04:29 1.9M
20260430T00Z_MSC_GDPS_SpecificHumidity_IsbL-0900_LatLon0.15_PT093H.grib2 2026-04-30 04:29 1.9M
20260430T00Z_MSC_GDPS_SpecificHumidity_IsbL-0925_LatLon0.15_PT093H.grib2 2026-04-30 04:29 1.6M
20260430T00Z_MSC_GDPS_SpecificHumidity_IsbL-0950_LatLon0.15_PT093H.grib2 2026-04-30 04:29 1.6M
20260430T00Z_MSC_GDPS_SpecificHumidity_IsbL-0970_LatLon0.15_PT093H.grib2 2026-04-30 04:29 1.5M
20260430T00Z_MSC_GDPS_SpecificHumidity_IsbL-0985_LatLon0.15_PT093H.grib2 2026-04-30 04:29 1.5M
20260430T00Z_MSC_GDPS_SpecificHumidity_IsbL-1000_LatLon0.15_PT093H.grib2 2026-04-30 04:29 1.5M
20260430T00Z_MSC_GDPS_SpecificHumidity_IsbL-1015_LatLon0.15_PT093H.grib2 2026-04-30 04:29 1.4M
20260430T00Z_MSC_GDPS_SpecificHumidity_Sfc_LatLon0.15_PT093H.grib2 2026-04-30 04:29 663K
20260430T00Z_MSC_GDPS_Thickness_IsbL-0850to0700_LatLon0.15_PT093H.grib2 2026-04-30 04:29 468K
20260430T00Z_MSC_GDPS_Thickness_IsbL-1000to0500_LatLon0.15_PT093H.grib2 2026-04-30 04:29 370K
20260430T00Z_MSC_GDPS_Thickness_IsbL-1000to0850_LatLon0.15_PT093H.grib2 2026-04-30 04:29 488K
20260430T00Z_MSC_GDPS_TotalCloudCover_Sfc_LatLon0.15_PT093H.grib2 2026-04-30 04:29 823K
20260430T00Z_MSC_GDPS_TotalTotalsIndex_Sfc_LatLon0.15_PT093H.grib2 2026-04-30 04:29 6.2M
20260430T00Z_MSC_GDPS_UVIndex-ClearSky_Sfc_LatLon0.15_PT093H.grib2 2026-04-30 04:51 1.0M
20260430T00Z_MSC_GDPS_UVIndex_Sfc_LatLon0.15_PT093H.grib2 2026-04-30 04:51 1.5M
20260430T00Z_MSC_GDPS_UpwardLongwaveRadiationFlux_NTAtm_LatLon0.15_PT093H.grib2 2026-04-30 04:29 841K
20260430T00Z_MSC_GDPS_VerticalVelocity_IsbL-0200_LatLon0.15_PT093H.grib2 2026-04-30 04:29 933K
20260430T00Z_MSC_GDPS_VerticalVelocity_IsbL-0250_LatLon0.15_PT093H.grib2 2026-04-30 04:29 1.1M
20260430T00Z_MSC_GDPS_VerticalVelocity_IsbL-0500_LatLon0.15_PT093H.grib2 2026-04-30 04:29 1.0M
20260430T00Z_MSC_GDPS_VerticalVelocity_IsbL-0600_LatLon0.15_PT093H.grib2 2026-04-30 04:29 1.1M
20260430T00Z_MSC_GDPS_VerticalVelocity_IsbL-0700_LatLon0.15_PT093H.grib2 2026-04-30 04:29 1.1M
20260430T00Z_MSC_GDPS_VerticalVelocity_IsbL-0850_LatLon0.15_PT093H.grib2 2026-04-30 04:29 1.3M
20260430T00Z_MSC_GDPS_WindChill_Sfc_LatLon0.15_PT093H.grib2 2026-04-30 04:29 5.3M
20260430T00Z_MSC_GDPS_WindDir_AGL-10m_LatLon0.15_PT093H.grib2 2026-04-30 04:29 1.3M
20260430T00Z_MSC_GDPS_WindDir_AGL-120m_LatLon0.15_PT093H.grib2 2026-04-30 04:29 1.3M
20260430T00Z_MSC_GDPS_WindDir_AGL-40m_LatLon0.15_PT093H.grib2 2026-04-30 04:29 1.4M
20260430T00Z_MSC_GDPS_WindDir_AGL-80m_LatLon0.15_PT093H.grib2 2026-04-30 04:29 1.4M
20260430T00Z_MSC_GDPS_WindDir_IsbL-0001_LatLon0.15_PT093H.grib2 2026-04-30 04:29 671K
20260430T00Z_MSC_GDPS_WindDir_IsbL-0005_LatLon0.15_PT093H.grib2 2026-04-30 04:29 797K
20260430T00Z_MSC_GDPS_WindDir_IsbL-0010_LatLon0.15_PT093H.grib2 2026-04-30 04:29 840K
20260430T00Z_MSC_GDPS_WindDir_IsbL-0020_LatLon0.15_PT093H.grib2 2026-04-30 04:29 954K
20260430T00Z_MSC_GDPS_WindDir_IsbL-0030_LatLon0.15_PT093H.grib2 2026-04-30 04:29 936K
20260430T00Z_MSC_GDPS_WindDir_IsbL-0050_LatLon0.15_PT093H.grib2 2026-04-30 04:29 948K
20260430T00Z_MSC_GDPS_WindDir_IsbL-0100_LatLon0.15_PT093H.grib2 2026-04-30 04:29 1.0M
20260430T00Z_MSC_GDPS_WindDir_IsbL-0150_LatLon0.15_PT093H.grib2 2026-04-30 04:29 1.0M
20260430T00Z_MSC_GDPS_WindDir_IsbL-0175_LatLon0.15_PT093H.grib2 2026-04-30 04:29 1.1M
20260430T00Z_MSC_GDPS_WindDir_IsbL-0200_LatLon0.15_PT093H.grib2 2026-04-30 04:29 1.1M
20260430T00Z_MSC_GDPS_WindDir_IsbL-0225_LatLon0.15_PT093H.grib2 2026-04-30 04:29 1.1M
20260430T00Z_MSC_GDPS_WindDir_IsbL-0250_LatLon0.15_PT093H.grib2 2026-04-30 04:29 1.1M
20260430T00Z_MSC_GDPS_WindDir_IsbL-0275_LatLon0.15_PT093H.grib2 2026-04-30 04:29 1.2M
20260430T00Z_MSC_GDPS_WindDir_IsbL-0300_LatLon0.15_PT093H.grib2 2026-04-30 04:29 1.2M
20260430T00Z_MSC_GDPS_WindDir_IsbL-0350_LatLon0.15_PT093H.grib2 2026-04-30 04:29 1.2M
20260430T00Z_MSC_GDPS_WindDir_IsbL-0400_LatLon0.15_PT093H.grib2 2026-04-30 04:29 1.3M
20260430T00Z_MSC_GDPS_WindDir_IsbL-0450_LatLon0.15_PT093H.grib2 2026-04-30 04:29 1.3M
20260430T00Z_MSC_GDPS_WindDir_IsbL-0500_LatLon0.15_PT093H.grib2 2026-04-30 04:29 1.3M
20260430T00Z_MSC_GDPS_WindDir_IsbL-0550_LatLon0.15_PT093H.grib2 2026-04-30 04:29 1.4M
20260430T00Z_MSC_GDPS_WindDir_IsbL-0600_LatLon0.15_PT093H.grib2 2026-04-30 04:29 1.4M
20260430T00Z_MSC_GDPS_WindDir_IsbL-0650_LatLon0.15_PT093H.grib2 2026-04-30 04:29 1.5M
20260430T00Z_MSC_GDPS_WindDir_IsbL-0700_LatLon0.15_PT093H.grib2 2026-04-30 04:29 1.6M
20260430T00Z_MSC_GDPS_WindDir_IsbL-0750_LatLon0.15_PT093H.grib2 2026-04-30 04:29 1.7M
20260430T00Z_MSC_GDPS_WindDir_IsbL-0800_LatLon0.15_PT093H.grib2 2026-04-30 04:29 1.8M
20260430T00Z_MSC_GDPS_WindDir_IsbL-0850_LatLon0.15_PT093H.grib2 2026-04-30 04:29 1.9M
20260430T00Z_MSC_GDPS_WindDir_IsbL-0875_LatLon0.15_PT093H.grib2 2026-04-30 04:29 1.9M
20260430T00Z_MSC_GDPS_WindDir_IsbL-0900_LatLon0.15_PT093H.grib2 2026-04-30 04:29 1.9M
20260430T00Z_MSC_GDPS_WindDir_IsbL-0925_LatLon0.15_PT093H.grib2 2026-04-30 04:29 2.0M
20260430T00Z_MSC_GDPS_WindDir_IsbL-0950_LatLon0.15_PT093H.grib2 2026-04-30 04:29 2.0M
20260430T00Z_MSC_GDPS_WindDir_IsbL-0970_LatLon0.15_PT093H.grib2 2026-04-30 04:29 2.0M
20260430T00Z_MSC_GDPS_WindDir_IsbL-0985_LatLon0.15_PT093H.grib2 2026-04-30 04:29 2.0M
20260430T00Z_MSC_GDPS_WindDir_IsbL-1000_LatLon0.15_PT093H.grib2 2026-04-30 04:29 2.1M
20260430T00Z_MSC_GDPS_WindDir_IsbL-1015_LatLon0.15_PT093H.grib2 2026-04-30 04:29 2.0M
20260430T00Z_MSC_GDPS_WindGust-Max_AGL-10m_LatLon0.15_PT093H.grib2 2026-04-30 04:29 2.2M
20260430T00Z_MSC_GDPS_WindGust-Min_AGL-10m_LatLon0.15_PT093H.grib2 2026-04-30 04:29 2.2M
20260430T00Z_MSC_GDPS_WindGust_AGL-10m_LatLon0.15_PT093H.grib2 2026-04-30 04:29 2.1M
20260430T00Z_MSC_GDPS_WindSpeed_AGL-10m_LatLon0.15_PT093H.grib2 2026-04-30 04:29 1.1M
20260430T00Z_MSC_GDPS_WindSpeed_AGL-120m_LatLon0.15_PT093H.grib2 2026-04-30 04:29 1.2M
20260430T00Z_MSC_GDPS_WindSpeed_AGL-40m_LatLon0.15_PT093H.grib2 2026-04-30 04:29 1.2M
20260430T00Z_MSC_GDPS_WindSpeed_AGL-80m_LatLon0.15_PT093H.grib2 2026-04-30 04:29 1.2M
20260430T00Z_MSC_GDPS_WindSpeed_IsbL-0001_LatLon0.15_PT093H.grib2 2026-04-30 04:29 641K
20260430T00Z_MSC_GDPS_WindSpeed_IsbL-0005_LatLon0.15_PT093H.grib2 2026-04-30 04:29 613K
20260430T00Z_MSC_GDPS_WindSpeed_IsbL-0010_LatLon0.15_PT093H.grib2 2026-04-30 04:29 626K
20260430T00Z_MSC_GDPS_WindSpeed_IsbL-0020_LatLon0.15_PT093H.grib2 2026-04-30 04:29 666K
20260430T00Z_MSC_GDPS_WindSpeed_IsbL-0030_LatLon0.15_PT093H.grib2 2026-04-30 04:29 866K
20260430T00Z_MSC_GDPS_WindSpeed_IsbL-0050_LatLon0.15_PT093H.grib2 2026-04-30 04:29 910K
20260430T00Z_MSC_GDPS_WindSpeed_IsbL-0100_LatLon0.15_PT093H.grib2 2026-04-30 04:29 1.1M
20260430T00Z_MSC_GDPS_WindSpeed_IsbL-0150_LatLon0.15_PT093H.grib2 2026-04-30 04:29 953K
20260430T00Z_MSC_GDPS_WindSpeed_IsbL-0175_LatLon0.15_PT093H.grib2 2026-04-30 04:29 1.0M
20260430T00Z_MSC_GDPS_WindSpeed_IsbL-0200_LatLon0.15_PT093H.grib2 2026-04-30 04:29 1.1M
20260430T00Z_MSC_GDPS_WindSpeed_IsbL-0225_LatLon0.15_PT093H.grib2 2026-04-30 04:29 1.1M
20260430T00Z_MSC_GDPS_WindSpeed_IsbL-0250_LatLon0.15_PT093H.grib2 2026-04-30 04:29 1.1M
20260430T00Z_MSC_GDPS_WindSpeed_IsbL-0275_LatLon0.15_PT093H.grib2 2026-04-30 04:29 1.1M
20260430T00Z_MSC_GDPS_WindSpeed_IsbL-0300_LatLon0.15_PT093H.grib2 2026-04-30 04:29 1.1M
20260430T00Z_MSC_GDPS_WindSpeed_IsbL-0350_LatLon0.15_PT093H.grib2 2026-04-30 04:29 1.1M
20260430T00Z_MSC_GDPS_WindSpeed_IsbL-0400_LatLon0.15_PT093H.grib2 2026-04-30 04:29 1.1M
20260430T00Z_MSC_GDPS_WindSpeed_IsbL-0450_LatLon0.15_PT093H.grib2 2026-04-30 04:29 1.1M
20260430T00Z_MSC_GDPS_WindSpeed_IsbL-0500_LatLon0.15_PT093H.grib2 2026-04-30 04:29 1.1M
20260430T00Z_MSC_GDPS_WindSpeed_IsbL-0550_LatLon0.15_PT093H.grib2 2026-04-30 04:29 1.1M
20260430T00Z_MSC_GDPS_WindSpeed_IsbL-0600_LatLon0.15_PT093H.grib2 2026-04-30 04:29 1.4M
20260430T00Z_MSC_GDPS_WindSpeed_IsbL-0650_LatLon0.15_PT093H.grib2 2026-04-30 04:29 1.4M
20260430T00Z_MSC_GDPS_WindSpeed_IsbL-0700_LatLon0.15_PT093H.grib2 2026-04-30 04:29 1.5M
20260430T00Z_MSC_GDPS_WindSpeed_IsbL-0750_LatLon0.15_PT093H.grib2 2026-04-30 04:29 1.6M
20260430T00Z_MSC_GDPS_WindSpeed_IsbL-0800_LatLon0.15_PT093H.grib2 2026-04-30 04:29 1.3M
20260430T00Z_MSC_GDPS_WindSpeed_IsbL-0850_LatLon0.15_PT093H.grib2 2026-04-30 04:29 1.4M
20260430T00Z_MSC_GDPS_WindSpeed_IsbL-0875_LatLon0.15_PT093H.grib2 2026-04-30 04:29 1.8M
20260430T00Z_MSC_GDPS_WindSpeed_IsbL-0900_LatLon0.15_PT093H.grib2 2026-04-30 04:29 1.8M
20260430T00Z_MSC_GDPS_WindSpeed_IsbL-0925_LatLon0.15_PT093H.grib2 2026-04-30 04:29 1.8M
20260430T00Z_MSC_GDPS_WindSpeed_IsbL-0950_LatLon0.15_PT093H.grib2 2026-04-30 04:29 1.9M
20260430T00Z_MSC_GDPS_WindSpeed_IsbL-0970_LatLon0.15_PT093H.grib2 2026-04-30 04:29 1.9M
20260430T00Z_MSC_GDPS_WindSpeed_IsbL-0985_LatLon0.15_PT093H.grib2 2026-04-30 04:29 1.9M
20260430T00Z_MSC_GDPS_WindSpeed_IsbL-1000_LatLon0.15_PT093H.grib2 2026-04-30 04:29 1.8M
20260430T00Z_MSC_GDPS_WindSpeed_IsbL-1015_LatLon0.15_PT093H.grib2 2026-04-30 04:29 1.8M
20260430T00Z_MSC_GDPS_WindU_AGL-10m_LatLon0.15_PT093H.grib2 2026-04-30 04:29 1.3M
20260430T00Z_MSC_GDPS_WindU_AGL-120m_LatLon0.15_PT093H.grib2 2026-04-30 04:29 1.0M
20260430T00Z_MSC_GDPS_WindU_AGL-40m_LatLon0.15_PT093H.grib2 2026-04-30 04:29 1.0M
20260430T00Z_MSC_GDPS_WindU_AGL-80m_LatLon0.15_PT093H.grib2 2026-04-30 04:29 1.0M
20260430T00Z_MSC_GDPS_WindU_IsbL-0001_LatLon0.15_PT093H.grib2 2026-04-30 04:29 499K
20260430T00Z_MSC_GDPS_WindU_IsbL-0005_LatLon0.15_PT093H.grib2 2026-04-30 04:29 690K
20260430T00Z_MSC_GDPS_WindU_IsbL-0010_LatLon0.15_PT093H.grib2 2026-04-30 04:29 702K
20260430T00Z_MSC_GDPS_WindU_IsbL-0020_LatLon0.15_PT093H.grib2 2026-04-30 04:29 732K
20260430T00Z_MSC_GDPS_WindU_IsbL-0030_LatLon0.15_PT093H.grib2 2026-04-30 04:29 740K
20260430T00Z_MSC_GDPS_WindU_IsbL-0050_LatLon0.15_PT093H.grib2 2026-04-30 04:29 769K
20260430T00Z_MSC_GDPS_WindU_IsbL-0100_LatLon0.15_PT093H.grib2 2026-04-30 04:29 926K
20260430T00Z_MSC_GDPS_WindU_IsbL-0150_LatLon0.15_PT093H.grib2 2026-04-30 04:29 1.0M
20260430T00Z_MSC_GDPS_WindU_IsbL-0175_LatLon0.15_PT093H.grib2 2026-04-30 04:29 1.0M
20260430T00Z_MSC_GDPS_WindU_IsbL-0200_LatLon0.15_PT093H.grib2 2026-04-30 04:29 843K
20260430T00Z_MSC_GDPS_WindU_IsbL-0225_LatLon0.15_PT093H.grib2 2026-04-30 04:29 853K
20260430T00Z_MSC_GDPS_WindU_IsbL-0250_LatLon0.15_PT093H.grib2 2026-04-30 04:29 858K
20260430T00Z_MSC_GDPS_WindU_IsbL-0275_LatLon0.15_PT093H.grib2 2026-04-30 04:29 886K
20260430T00Z_MSC_GDPS_WindU_IsbL-0300_LatLon0.15_PT093H.grib2 2026-04-30 04:29 878K
20260430T00Z_MSC_GDPS_WindU_IsbL-0350_LatLon0.15_PT093H.grib2 2026-04-30 04:29 893K
20260430T00Z_MSC_GDPS_WindU_IsbL-0400_LatLon0.15_PT093H.grib2 2026-04-30 04:29 894K
20260430T00Z_MSC_GDPS_WindU_IsbL-0450_LatLon0.15_PT093H.grib2 2026-04-30 04:29 1.1M
20260430T00Z_MSC_GDPS_WindU_IsbL-0500_LatLon0.15_PT093H.grib2 2026-04-30 04:29 1.1M
20260430T00Z_MSC_GDPS_WindU_IsbL-0550_LatLon0.15_PT093H.grib2 2026-04-30 04:29 1.1M
20260430T00Z_MSC_GDPS_WindU_IsbL-0600_LatLon0.15_PT093H.grib2 2026-04-30 04:29 1.2M
20260430T00Z_MSC_GDPS_WindU_IsbL-0650_LatLon0.15_PT093H.grib2 2026-04-30 04:29 1.2M
20260430T00Z_MSC_GDPS_WindU_IsbL-0700_LatLon0.15_PT093H.grib2 2026-04-30 04:29 1.2M
20260430T00Z_MSC_GDPS_WindU_IsbL-0750_LatLon0.15_PT093H.grib2 2026-04-30 04:29 1.3M
20260430T00Z_MSC_GDPS_WindU_IsbL-0800_LatLon0.15_PT093H.grib2 2026-04-30 04:29 1.4M
20260430T00Z_MSC_GDPS_WindU_IsbL-0850_LatLon0.15_PT093H.grib2 2026-04-30 04:29 1.4M
20260430T00Z_MSC_GDPS_WindU_IsbL-0875_LatLon0.15_PT093H.grib2 2026-04-30 04:29 1.5M
20260430T00Z_MSC_GDPS_WindU_IsbL-0900_LatLon0.15_PT093H.grib2 2026-04-30 04:29 1.5M
20260430T00Z_MSC_GDPS_WindU_IsbL-0925_LatLon0.15_PT093H.grib2 2026-04-30 04:29 1.5M
20260430T00Z_MSC_GDPS_WindU_IsbL-0950_LatLon0.15_PT093H.grib2 2026-04-30 04:29 1.4M
20260430T00Z_MSC_GDPS_WindU_IsbL-0970_LatLon0.15_PT093H.grib2 2026-04-30 04:29 1.4M
20260430T00Z_MSC_GDPS_WindU_IsbL-0985_LatLon0.15_PT093H.grib2 2026-04-30 04:29 1.4M
20260430T00Z_MSC_GDPS_WindU_IsbL-1000_LatLon0.15_PT093H.grib2 2026-04-30 04:29 1.4M
20260430T00Z_MSC_GDPS_WindU_IsbL-1015_LatLon0.15_PT093H.grib2 2026-04-30 04:29 1.3M
20260430T00Z_MSC_GDPS_WindV_AGL-10m_LatLon0.15_PT093H.grib2 2026-04-30 04:29 1.3M
20260430T00Z_MSC_GDPS_WindV_AGL-120m_LatLon0.15_PT093H.grib2 2026-04-30 04:29 973K
20260430T00Z_MSC_GDPS_WindV_AGL-40m_LatLon0.15_PT093H.grib2 2026-04-30 04:29 966K
20260430T00Z_MSC_GDPS_WindV_AGL-80m_LatLon0.15_PT093H.grib2 2026-04-30 04:29 972K
20260430T00Z_MSC_GDPS_WindV_IsbL-0001_LatLon0.15_PT093H.grib2 2026-04-30 04:29 779K
20260430T00Z_MSC_GDPS_WindV_IsbL-0005_LatLon0.15_PT093H.grib2 2026-04-30 04:29 856K
20260430T00Z_MSC_GDPS_WindV_IsbL-0010_LatLon0.15_PT093H.grib2 2026-04-30 04:29 884K
20260430T00Z_MSC_GDPS_WindV_IsbL-0020_LatLon0.15_PT093H.grib2 2026-04-30 04:29 858K
20260430T00Z_MSC_GDPS_WindV_IsbL-0030_LatLon0.15_PT093H.grib2 2026-04-30 04:29 939K
20260430T00Z_MSC_GDPS_WindV_IsbL-0050_LatLon0.15_PT093H.grib2 2026-04-30 04:29 1.0M
20260430T00Z_MSC_GDPS_WindV_IsbL-0100_LatLon0.15_PT093H.grib2 2026-04-30 04:29 858K
20260430T00Z_MSC_GDPS_WindV_IsbL-0150_LatLon0.15_PT093H.grib2 2026-04-30 04:29 1.0M
20260430T00Z_MSC_GDPS_WindV_IsbL-0175_LatLon0.15_PT093H.grib2 2026-04-30 04:29 1.0M
20260430T00Z_MSC_GDPS_WindV_IsbL-0200_LatLon0.15_PT093H.grib2 2026-04-30 04:29 841K
20260430T00Z_MSC_GDPS_WindV_IsbL-0225_LatLon0.15_PT093H.grib2 2026-04-30 04:29 849K
20260430T00Z_MSC_GDPS_WindV_IsbL-0250_LatLon0.15_PT093H.grib2 2026-04-30 04:29 849K
20260430T00Z_MSC_GDPS_WindV_IsbL-0275_LatLon0.15_PT093H.grib2 2026-04-30 04:29 933K
20260430T00Z_MSC_GDPS_WindV_IsbL-0300_LatLon0.15_PT093H.grib2 2026-04-30 04:29 925K
20260430T00Z_MSC_GDPS_WindV_IsbL-0350_LatLon0.15_PT093H.grib2 2026-04-30 04:29 936K
20260430T00Z_MSC_GDPS_WindV_IsbL-0400_LatLon0.15_PT093H.grib2 2026-04-30 04:29 879K
20260430T00Z_MSC_GDPS_WindV_IsbL-0450_LatLon0.15_PT093H.grib2 2026-04-30 04:29 882K
20260430T00Z_MSC_GDPS_WindV_IsbL-0500_LatLon0.15_PT093H.grib2 2026-04-30 04:29 1.1M
20260430T00Z_MSC_GDPS_WindV_IsbL-0550_LatLon0.15_PT093H.grib2 2026-04-30 04:29 1.1M
20260430T00Z_MSC_GDPS_WindV_IsbL-0600_LatLon0.15_PT093H.grib2 2026-04-30 04:29 1.1M
20260430T00Z_MSC_GDPS_WindV_IsbL-0650_LatLon0.15_PT093H.grib2 2026-04-30 04:29 1.2M
20260430T00Z_MSC_GDPS_WindV_IsbL-0700_LatLon0.15_PT093H.grib2 2026-04-30 04:29 1.2M
20260430T00Z_MSC_GDPS_WindV_IsbL-0750_LatLon0.15_PT093H.grib2 2026-04-30 04:29 1.3M
20260430T00Z_MSC_GDPS_WindV_IsbL-0800_LatLon0.15_PT093H.grib2 2026-04-30 04:29 1.3M
20260430T00Z_MSC_GDPS_WindV_IsbL-0850_LatLon0.15_PT093H.grib2 2026-04-30 04:29 1.4M
20260430T00Z_MSC_GDPS_WindV_IsbL-0875_LatLon0.15_PT093H.grib2 2026-04-30 04:29 1.4M
20260430T00Z_MSC_GDPS_WindV_IsbL-0900_LatLon0.15_PT093H.grib2 2026-04-30 04:29 1.4M
20260430T00Z_MSC_GDPS_WindV_IsbL-0925_LatLon0.15_PT093H.grib2 2026-04-30 04:29 1.4M
20260430T00Z_MSC_GDPS_WindV_IsbL-0950_LatLon0.15_PT093H.grib2 2026-04-30 04:29 1.4M
20260430T00Z_MSC_GDPS_WindV_IsbL-0970_LatLon0.15_PT093H.grib2 2026-04-30 04:29 1.4M
20260430T00Z_MSC_GDPS_WindV_IsbL-0985_LatLon0.15_PT093H.grib2 2026-04-30 04:29 1.4M
20260430T00Z_MSC_GDPS_WindV_IsbL-1000_LatLon0.15_PT093H.grib2 2026-04-30 04:29 1.4M
20260430T00Z_MSC_GDPS_WindV_IsbL-1015_LatLon0.15_PT093H.grib2 2026-04-30 04:29 1.3M